« Back
NWS Peachtree City, Ga » Text Product » GA Regional Weather Roundup


Printer-friendly Version
Current Version              Previous Versions:   1  2  3  4  5  6  7  8  9  

Regional Weather Roundup

239
ASUS42 KFFC 091103
RWRGA
WEATHER ROUNDUP FOR GEORGIA
NATIONAL WEATHER SERVICE PEACHTREE CITY GA
600 AM EST TUE FEB 09 2016

NOTE: "FAIR" INDICATES FEW OR NO CLOUDS BELOW 12,000 FEET WITH NO
SIGNIFICANT WEATHER AND/OR OBSTRUCTIONS TO VISIBILITY.

* = USE WITH CAUTION. THE STATIONS MARKED WITH AN ASTERISK MAY NOT
REPORT WEATHER SUCH AS PRECIPITATION, FOG, OR THUNDER AND ARE NOT
QUALITY CONTROLLED BY NWS.

THE REMARK "TC" DENOTES TEMPERATURE READING IN DEGREES CELSIUS.

GAZ001>058-091200-
NORTH GEORGIA

CITY           SKY/WX    TMP DP  RH WIND       PRES   REMARKS
ATLANTA        CLOUDY    34  22  61 W14       29.81R WCI  25
ATHENS         CLOUDY    35  22  58 W12G20    29.78R WCI  27
CHAMBLEE       CLOUDY    33  22  63 W13       29.80R WCI  24
PEACHTREE CITY CLOUDY    35  22  58 W13G20    29.84R WCI  26
ROME           CLOUDY    34  20  56 W12       29.83S WCI  25
WEST ATLANTA   CLOUDY    34  20  56 W10G21    29.82R WCI  26
GAINESVILLE    CLOUDY    31  21  66 W15G23    29.78R WCI  20
CARTERSVILLE   CLOUDY    33  21  61 VRB3      29.84R


CITY           SKY/WX    TMP DP  RH WIND       PRES   REMARKS
MARIETTA       CLOUDY    33  21  62 W17G23    29.80R WCI  22
BLAIRSVILLE*   FLURRIES  28   2  32 NW6       29.73R WCI  22
$$

GAZ059>098-102>109-091200-
CENTRAL GEORGIA

CITY           SKY/WX    TMP DP  RH WIND       PRES   REMARKS
AUGUSTA-BUSH   CLOUDY    36  25  64 W5        29.80S WCI  32
AUGUSTA-DANIEL CLOUDY    37  23  56 W3        29.79S
COLUMBUS       CLOUDY    37  21  52 W13       29.90R WCI  29
MACON          CLOUDY    37  24  59 W9        29.85R WCI  30
ROBINS AFB     CLOUDY    38  22  51 W12       29.85R WCI  31


CITY           SKY/WX    TMP DP  RH WIND       PRES   REMARKS
LAGRANGE*      CLOUDY    39  24  54 NW18G26   29.88R WCI  30
SYLVANIA*      CLEAR     37  30  78 W3        29.83F
MILLEDGEVILLE* CLOUDY    37  25  60 CALM      29.83R
$$

GAZ099>101-110>166-091200-
SOUTH GEORGIA

CITY           SKY/WX    TMP DP  RH WIND       PRES   REMARKS
SAVANNAH       CLEAR     35  27  72 W7        29.85S WCI  29
VALDOSTA       CLEAR     37  24  59 VRB3      29.97R
ALMA           CLEAR     37  28  70 W9        29.90R WCI  30
ST SIMONS      CLEAR     40  32  73 W9        29.89R WCI  34
FT STEWART     CLEAR     35  29  78 SW2       29.84S
ALBANY         PTCLDY    38  22  52 W10       29.96R WCI  31
HUNTER AFB     CLEAR     35  29  77 SW6       29.83S WCI  30
MOODY AFB      CLEAR     39  22  50 W9        29.94R WCI  32
BRUNSWICK      CLEAR     37  34  87 SW8       29.90R WCI  31


CITY           SKY/WX    TMP DP  RH WIND       PRES   REMARKS
MOULTRIE*      CLEAR     37  27  65 W8        29.96R WCI  31
VIDALIA*       CLEAR     36  27  69 W3        29.85S
WAYCROSS*      CLEAR     40  32  73 W9        29.92R WCI  34
DOUGLAS*       CLEAR     37  28  70 W10       29.93R WCI  30
$$




USA.gov is the U.S. government's official web portal to all federal, state and local government web resources and services.